Powrót do katalogu

SL-16 DEB

AktywnyLEO
NORAD 39301·DEBRIS·🇷🇺 Russia

Wystrzelony Dec 25, 1992 z Baikonur Cosmodrome

Loading…

Następne Przeloty (najbliższe 24 godziny)

TLE

ŚwieżeSource: Space-Track

Epoka: Sep 14, 2026, 13:15 UTC

1 39301U 92093JS  26257.55252854 -.00000144  00000-0 -52284-4 0  9993
2 39301  70.8841 356.1512 0032734 160.3507 199.8883 14.11722064674146

Śledź SL-16 DEB w czasie rzeczywistym z AllMySat

Download on the App Store